| time (UTC) | temp F | wind direction | speed MPH | gust MPH | rain 1hr in | rain 24hr in | rain mn in | humidity % | barometer mb |
| 20260507220552 | 59 | 238 | 5.0 | 8.0 | 0.00 | 0.00 | 0.00 | 44 | 1013.5 |
| 20260507220049 | 59 | 321 | 6.0 | 8.0 | 0.00 | 0.00 | 0.00 | 45 | 1013.3 |
| 20260507215545 | 59 | 289 | 7.0 | 10.0 | 0.00 | 0.00 | 0.00 | 43 | 1013.3 |
| 20260507215043 | 59 | 282 | 5.0 | 7.0 | 0.00 | 0.00 | 0.00 | 45 | 1013.0 |
| 20260507214540 | 57 | 255 | 3.0 | 3.0 | 0.00 | 0.00 | 0.00 | 48 | 1013.2 |
| 20260507214036 | 57 | 251 | 3.0 | 3.0 | 0.00 | 0.00 | 0.00 | 46 | 1013.1 |
| 20260507213532 | 58 | 256 | 11.0 | 13.0 | 0.00 | 0.00 | 0.00 | 45 | 1013.0 |
| 20260507213030 | 58 | 239 | 5.0 | 9.0 | 0.00 | 0.00 | 0.00 | 45 | 1012.9 |
| 20260507212525 | 58 | 255 | 4.0 | 8.0 | 0.00 | 0.00 | 0.00 | 47 | 1013.0 |
| 20260507212022 | 59 | 251 | 9.0 | 9.0 | 0.00 | 0.00 | 0.00 | 45 | 1013.1 |
| 20260507211519 | 58 | 315 | 6.0 | 7.0 | 0.00 | 0.00 | 0.00 | 46 | 1013.2 |
| 20260507211015 | 57 | 254 | 5.0 | 6.0 | 0.00 | 0.00 | 0.00 | 46 | 1013.0 |
| 20260507210513 | 57 | 277 | 6.0 | 7.0 | 0.00 | 0.00 | 0.00 | 48 | 1013.0 |
| 20260507210009 | 57 | 221 | 5.0 | 8.0 | 0.00 | 0.00 | 0.00 | 47 | 1013.3 |
| 20260507205506 | 58 | 274 | 7.0 | 8.0 | 0.00 | 0.00 | 0.00 | 46 | 1012.9 |
| 20260507205002 | 59 | 251 | 10.0 | 11.0 | 0.00 | 0.00 | 0.00 | 46 | 1013.1 |
| 20260507204459 | 58 | 312 | 7.0 | 10.0 | 0.00 | 0.00 | 0.00 | 49 | 1012.9 |
| 20260507203956 | 58 | 267 | 10.0 | 13.0 | 0.00 | 0.00 | 0.00 | 46 | 1013.0 |
| 20260507203454 | 58 | 216 | 3.0 | 3.0 | 0.00 | 0.00 | 0.00 | 46 | 1013.1 |
| 20260507202950 | 57 | 264 | 3.0 | 5.0 | 0.00 | 0.00 | 0.00 | 48 | 1013.0 |
| 20260507202447 | 57 | 184 | 2.0 | 3.0 | 0.00 | 0.00 | 0.00 | 52 | 1013.3 |
| 20260507201943 | 58 | 283 | 5.0 | 7.0 | 0.00 | 0.00 | 0.00 | 50 | 1013.1 |
| 20260507201438 | 58 | 229 | 5.0 | 8.0 | 0.00 | 0.00 | 0.00 | 47 | 1012.9 |
| 20260507200935 | 59 | 255 | 5.0 | 7.0 | 0.00 | 0.00 | 0.00 | 47 | 1012.9 |
| 20260507200431 | 59 | 221 | 1.0 | 3.0 | 0.00 | 0.00 | 0.00 | 52 | 1013.2 |
| 20260507195927 | 61 | 231 | 2.0 | 3.0 | 0.00 | 0.00 | 0.00 | 48 | 1013.1 |
| 20260507195425 | 58 | 270 | 5.0 | 6.0 | 0.00 | 0.00 | 0.00 | 50 | 1013.4 |
| 20260507194922 | 57 | 261 | 8.0 | 9.0 | 0.00 | 0.00 | 0.00 | 47 | 1013.5 |
| 20260507194418 | 60 | 269 | 6.0 | 8.0 | 0.00 | 0.00 | 0.00 | 49 | 1013.3 |
| 20260507193914 | 59 | 291 | 7.0 | 8.0 | 0.00 | 0.00 | 0.00 | 48 | 1013.6 |
| 20260507193412 | 57 | 322 | 7.0 | 9.0 | 0.00 | 0.00 | 0.00 | 49 | 1013.6 |
| 20260507192908 | 57 | 293 | 5.0 | 8.0 | 0.00 | 0.00 | 0.00 | 52 | 1013.7 |
| 20260507192404 | 57 | 235 | 4.0 | 7.0 | 0.00 | 0.00 | 0.00 | 49 | 1013.5 |
| 20260507191901 | 57 | 264 | 12.0 | 15.0 | 0.00 | 0.00 | 0.00 | 49 | 1013.6 |
| 20260507191357 | 57 | 232 | 5.0 | 8.0 | 0.00 | 0.00 | 0.00 | 49 | 1013.6 |
| 20260507190854 | 58 | 271 | 5.0 | 8.0 | 0.00 | 0.00 | 0.00 | 52 | 1013.7 |
| 20260507190352 | 56 | 232 | 7.0 | 8.0 | 0.00 | 0.00 | 0.00 | 49 | 1013.5 |
| 20260507185851 | 57 | 251 | 5.0 | 6.0 | 0.00 | 0.00 | 0.00 | 52 | 1013.9 |
| 20260507185348 | 58 | 269 | 8.0 | 9.0 | 0.00 | 0.00 | 0.00 | 48 | 1013.7 |
| 20260507184844 | 58 | 232 | 5.0 | 6.0 | 0.00 | 0.00 | 0.00 | 50 | 1013.7 |
| 20260507184342 | 59 | 227 | 8.0 | 9.0 | 0.00 | 0.00 | 0.00 | 48 | 1013.6 |
| 20260507183839 | 57 | 212 | 6.0 | 7.0 | 0.00 | 0.00 | 0.00 | 50 | 1013.5 |
| 20260507183336 | 58 | 242 | 11.0 | 11.0 | 0.00 | 0.00 | 0.00 | 48 | 1013.7 |
| 20260507182834 | 58 | 271 | 6.0 | 8.0 | 0.00 | 0.00 | 0.00 | 48 | 1013.8 |
| 20260507182329 | 58 | 348 | 7.0 | 9.0 | 0.00 | 0.00 | 0.00 | 47 | 1013.7 |
| 20260507181825 | 59 | 294 | 6.0 | 7.0 | 0.00 | 0.00 | 0.00 | 51 | 1013.7 |
| 20260507181321 | 59 | 229 | 5.0 | 7.0 | 0.00 | 0.00 | 0.00 | 50 | 1013.8 |
| 20260507180819 | 58 | 233 | 5.0 | 6.0 | 0.00 | 0.00 | 0.00 | 51 | 1013.8 |
| 20260507180316 | 58 | 262 | 9.0 | 10.0 | 0.00 | 0.00 | 0.00 | 50 | 1013.8 |
| 20260507175811 | 58 | 235 | 4.0 | 6.0 | 0.00 | 0.00 | 0.00 | 50 | 1013.9 |
| 20260507175308 | 57 | 299 | 4.0 | 7.0 | 0.00 | 0.00 | 0.00 | 58 | 1013.8 |
| 20260507174805 | 57 | 273 | 3.0 | 3.0 | 0.00 | 0.00 | 0.00 | 54 | 1013.8 |
| 20260507174303 | 57 | 294 | 3.0 | 5.0 | 0.00 | 0.00 | 0.00 | 52 | 1014.2 |
| 20260507173800 | 57 | 234 | 0.0 | 1.0 | 0.00 | 0.00 | 0.00 | 52 | 1014.2 |
| 20260507173257 | 56 | 333 | 5.0 | 6.0 | 0.00 | 0.00 | 0.00 | 54 | 1014.3 |
| 20260507172754 | 56 | 294 | 3.0 | 5.0 | 0.00 | 0.00 | 0.00 | 55 | 1014.2 |
| 20260507172251 | 55 | 245 | 3.0 | 3.0 | 0.00 | 0.00 | 0.00 | 56 | 1014.4 |
| 20260507171746 | 56 | 254 | 4.0 | 6.0 | 0.00 | 0.00 | 0.00 | 56 | 1014.4 |
| 20260507171243 | 57 | 270 | 9.0 | 13.0 | 0.00 | 0.00 | 0.00 | 54 | 1014.7 |
| 20260507170740 | 57 | 251 | 5.0 | 7.0 | 0.00 | 0.00 | 0.00 | 51 | 1014.5 |
| 20260507170237 | 56 | 328 | 8.0 | 9.0 | 0.00 | 0.00 | 0.00 | 54 | 1014.7 |
| 20260507165732 | 55 | 303 | 4.0 | 5.0 | 0.00 | 0.00 | 0.00 | 53 | 1014.7 |
| 20260507165229 | 56 | 117 | 2.0 | 3.0 | 0.00 | 0.00 | 0.00 | 54 | 1014.9 |
| 20260507164725 | 56 | 299 | 3.0 | 3.0 | 0.00 | 0.00 | 0.00 | 55 | 1014.8 |
| 20260507164222 | 56 | 275 | 4.0 | 6.0 | 0.00 | 0.00 | 0.00 | 54 | 1014.9 |
| 20260507163719 | 55 | 223 | 2.0 | 2.0 | 0.00 | 0.00 | 0.00 | 55 | 1014.8 |
| 20260507163218 | 55 | 260 | 5.0 | 6.0 | 0.00 | 0.00 | 0.00 | 57 | 1014.8 |
| 20260507162713 | 55 | 236 | 6.0 | 7.0 | 0.00 | 0.00 | 0.00 | 56 | 1014.8 |
| 20260507162209 | 55 | 245 | 3.0 | 5.0 | 0.00 | 0.00 | 0.00 | 53 | 1015.0 |
| 20260507161706 | 55 | 331 | 3.0 | 3.0 | 0.00 | 0.00 | 0.00 | 54 | 1014.9 |
| 20260507161202 | 54 | 250 | 3.0 | 3.0 | 0.00 | 0.00 | 0.00 | 56 | 1015.0 |
| 20260507160658 | 54 | 260 | 7.0 | 8.0 | 0.00 | 0.00 | 0.00 | 59 | 1015.2 |
| 20260507160155 | 55 | 287 | 4.0 | 5.0 | 0.00 | 0.00 | 0.00 | 57 | 1015.1 |
| 20260507155651 | 54 | 228 | 4.0 | 5.0 | 0.00 | 0.00 | 0.00 | 56 | 1015.4 |
| 20260507155148 | 53 | 232 | 2.0 | 2.0 | 0.00 | 0.00 | 0.00 | 61 | 1015.0 |
| 20260507154644 | 55 | 263 | 4.0 | 6.0 | 0.00 | 0.00 | 0.00 | 57 | 1015.3 |
| 20260507154142 | 55 | 307 | 3.0 | 5.0 | 0.00 | 0.00 | 0.00 | 57 | 1015.1 |
| 20260507153638 | 54 | 262 | 3.0 | 3.0 | 0.00 | 0.00 | 0.00 | 56 | 1015.2 |
| 20260507153135 | 53 | 219 | 0.0 | 1.0 | 0.00 | 0.00 | 0.00 | 59 | 1015.3 |
| 20260507152631 | 52 | 275 | 3.0 | 3.0 | 0.00 | 0.00 | 0.00 | 59 | 1015.4 |
| 20260507152127 | 52 | 340 | 3.0 | 3.0 | 0.00 | 0.00 | 0.00 | 59 | 1015.5 |
| 20260507151624 | 53 | 334 | 4.0 | 6.0 | 0.00 | 0.00 | 0.00 | 60 | 1015.5 |
| 20260507151121 | 53 | 240 | 1.0 | 2.0 | 0.00 | 0.00 | 0.00 | 58 | 1015.4 |
| 20260507150618 | 52 | 249 | 2.0 | 2.0 | 0.00 | 0.00 | 0.00 | 61 | 1015.5 |
| 20260507150114 | 53 | 245 | 3.0 | 5.0 | 0.00 | 0.00 | 0.00 | 61 | 1015.5 |
| 20260507145609 | 53 | 239 | 1.0 | 1.0 | 0.00 | 0.00 | 0.00 | 63 | 1015.6 |
| 20260507145108 | 51 | 254 | 5.0 | 6.0 | 0.00 | 0.00 | 0.00 | 62 | 1015.7 |
| 20260507144603 | 53 | 246 | 5.0 | 6.0 | 0.00 | 0.00 | 0.00 | 62 | 1015.5 |
| 20260507144102 | 52 | 210 | 3.0 | 3.0 | 0.00 | 0.00 | 0.00 | 58 | 1015.9 |
| 20260507143558 | 51 | 290 | 4.0 | 5.0 | 0.00 | 0.00 | 0.00 | 60 | 1015.9 |
| 20260507143055 | 51 | 343 | 5.0 | 6.0 | 0.00 | 0.00 | 0.00 | 60 | 1015.8 |
| 20260507142555 | 52 | 308 | 6.0 | 7.0 | 0.00 | 0.00 | 0.00 | 60 | 1016.1 |
| 20260507142053 | 52 | 40 | 5.0 | 7.0 | 0.00 | 0.00 | 0.00 | 59 | 1016.0 |
| 20260507141549 | 52 | 252 | 3.0 | 3.0 | 0.00 | 0.00 | 0.00 | 62 | 1016.3 |
| 20260507141046 | 51 | 83 | 3.0 | 3.0 | 0.00 | 0.00 | 0.00 | 57 | 1016.1 |
| 20260507140542 | 50 | 297 | 3.0 | 3.0 | 0.00 | 0.00 | 0.00 | 61 | 1016.3 |
| 20260507140040 | 50 | 331 | 6.0 | 7.0 | 0.00 | 0.00 | 0.00 | 60 | 1016.4 |
| 20260507135537 | 53 | 297 | 4.0 | 5.0 | 0.00 | 0.00 | 0.00 | 59 | 1016.5 |
| 20260507135034 | 51 | 206 | 1.0 | 2.0 | 0.00 | 0.00 | 0.00 | 60 | 1016.5 |
| 20260507134530 | 51 | 243 | 2.0 | 2.0 | 0.00 | 0.00 | 0.00 | 60 | 1016.6 |
| 20260507134026 | 51 | 35 | 3.0 | 3.0 | 0.00 | 0.00 | 0.00 | 57 | 1016.5 |
| 20260507133522 | 52 | 229 | 0.0 | 0.0 | 0.00 | 0.00 | 0.00 | 57 | 1016.6 |
| 20260507133021 | 51 | 252 | 3.0 | 3.0 | 0.00 | 0.00 | 0.00 | 57 | 1016.7 |
| 20260507132517 | 52 | 322 | 3.0 | 5.0 | 0.00 | 0.00 | 0.00 | 62 | 1016.7 |
| 20260507132013 | 51 | 219 | 0.0 | 0.0 | 0.00 | 0.00 | 0.00 | 57 | 1016.7 |
| 20260507131510 | 50 | 311 | 2.0 | 2.0 | 0.00 | 0.00 | 0.00 | 58 | 1016.8 |
| 20260507131008 | 50 | 221 | 2.0 | 2.0 | 0.00 | 0.00 | 0.00 | 59 | 1016.7 |
| 20260507130504 | 51 | 229 | 1.0 | 1.0 | 0.00 | 0.00 | 0.00 | 60 | 1016.6 |
| 20260507130003 | 52 | 235 | 1.0 | 1.0 | 0.00 | 0.00 | 0.00 | 59 | 1016.8 |
| 20260507125501 | 51 | 223 | 1.0 | 2.0 | 0.00 | 0.00 | 0.00 | 58 | 1016.7 |
| 20260507124958 | 51 | 207 | 1.0 | 1.0 | 0.00 | 0.00 | 0.00 | 57 | 1016.7 |
| 20260507124454 | 51 | 222 | 1.0 | 2.0 | 0.00 | 0.00 | 0.00 | 58 | 1016.6 |
| 20260507123952 | 51 | 204 | 1.0 | 1.0 | 0.00 | 0.00 | 0.00 | 57 | 1016.7 |
| 20260507123449 | 51 | 221 | 0.0 | 1.0 | 0.00 | 0.00 | 0.00 | 61 | 1016.8 |
| 20260507122946 | 52 | 188 | 0.0 | 0.0 | 0.00 | 0.00 | 0.00 | 62 | 1016.9 |
| 20260507122441 | 51 | 188 | 0.0 | 0.0 | 0.00 | 0.00 | 0.00 | 60 | 1016.7 |
| 20260507121937 | 50 | 188 | 0.0 | 0.0 | 0.00 | 0.00 | 0.00 | 69 | 1016.6 |
| 20260507121433 | 50 | 188 | 0.0 | 0.0 | 0.00 | 0.00 | 0.00 | 69 | 1016.9 |
| 20260507120930 | 49 | 188 | 0.0 | 0.0 | 0.00 | 0.00 | 0.00 | 76 | 1016.6 |
| 20260507120426 | 47 | 188 | 0.0 | 1.0 | 0.00 | 0.00 | 0.00 | 79 | 1016.8 |
| 20260507115922 | 46 | 188 | 0.0 | 0.0 | 0.00 | 0.00 | 0.00 | 79 | 1016.5 |
| 20260507115419 | 46 | 188 | 1.0 | 2.0 | 0.00 | 0.00 | 0.00 | 79 | 1016.6 |
| 20260507114914 | 46 | 186 | 2.0 | 2.0 | 0.00 | 0.00 | 0.00 | 74 | 1016.5 |
| 20260507114411 | 46 | 188 | 1.0 | 2.0 | 0.00 | 0.00 | 0.00 | 79 | 1016.3 |
| 20260507113908 | 45 | 199 | 1.0 | 2.0 | 0.00 | 0.00 | 0.00 | 74 | 1016.3 |
| 20260507113406 | 45 | 177 | 3.0 | 3.0 | 0.00 | 0.00 | 0.00 | 80 | 1016.1 |
| 20260507112903 | 44 | 203 | 0.0 | 1.0 | 0.00 | 0.00 | 0.00 | 76 | 1016.1 |
| 20260507112400 | 45 | 181 | 3.0 | 3.0 | 0.00 | 0.00 | 0.00 | 77 | 1016.3 |
| 20260507111858 | 44 | 171 | 3.0 | 3.0 | 0.00 | 0.00 | 0.00 | 74 | 1016.3 |
| 20260507111354 | 44 | 186 | 2.0 | 2.0 | 0.00 | 0.00 | 0.00 | 76 | 1016.3 |
| 20260507110850 | 43 | 177 | 2.0 | 2.0 | 0.00 | 0.00 | 0.00 | 77 | 1016.0 |
| 20260507110346 | 42 | 169 | 3.0 | 3.0 | 0.00 | 0.00 | 0.00 | 79 | 1016.1 |
| 20260507105844 | 42 | 186 | 2.0 | 2.0 | 0.00 | 0.00 | 0.00 | 80 | 1016.1 |
| 20260507105340 | 42 | 180 | 3.0 | 3.0 | 0.00 | 0.00 | 0.00 | 80 | 1016.3 |
| 20260507104837 | 42 | 185 | 2.0 | 3.0 | 0.00 | 0.00 | 0.00 | 81 | 1015.9 |
| 20260507104334 | 43 | 183 | 2.0 | 2.0 | 0.00 | 0.00 | 0.00 | 80 | 1016.0 |
| 20260507103830 | 42 | 169 | 3.0 | 3.0 | 0.00 | 0.00 | 0.00 | 79 | 1015.9 |
| 20260507103326 | 42 | 186 | 2.0 | 2.0 | 0.00 | 0.00 | 0.00 | 82 | 1015.9 |
| 20260507102823 | 42 | 186 | 3.0 | 3.0 | 0.00 | 0.00 | 0.00 | 80 | 1015.7 |
| 20260507102320 | 42 | 168 | 3.0 | 3.0 | 0.00 | 0.00 | 0.00 | 82 | 1015.7 |
| 20260507101816 | 43 | 185 | 2.0 | 2.0 | 0.00 | 0.00 | 0.00 | 82 | 1015.9 |
| 20260507101316 | 43 | 183 | 3.0 | 3.0 | 0.00 | 0.00 | 0.00 | 81 | 1015.6 |
| 20260507100813 | 43 | 186 | 2.0 | 2.0 | 0.00 | 0.00 | 0.00 | 82 | 1015.7 |
| 20260507100311 | 42 | 185 | 2.0 | 2.0 | 0.00 | 0.00 | 0.00 | 87 | 1015.7 |
| 20260507095809 | 43 | 192 | 1.0 | 1.0 | 0.00 | 0.00 | 0.00 | 89 | 1015.8 |
| 20260507095306 | 43 | 186 | 2.0 | 2.0 | 0.00 | 0.00 | 0.00 | 90 | 1015.7 |
| 20260507094802 | 43 | 198 | 2.0 | 2.0 | 0.00 | 0.00 | 0.00 | 90 | 1015.6 |
| 20260507094259 | 43 | 199 | 1.0 | 2.0 | 0.00 | 0.00 | 0.00 | 91 | 1015.5 |
| 20260507093756 | 43 | 198 | 1.0 | 1.0 | 0.00 | 0.00 | 0.00 | 92 | 1015.7 |
| 20260507093255 | 43 | 194 | 1.0 | 1.0 | 0.00 | 0.00 | 0.00 | 93 | 1015.7 |
| 20260507092752 | 43 | 199 | 1.0 | 2.0 | 0.00 | 0.00 | 0.00 | 94 | 1015.6 |
| 20260507092248 | 44 | 186 | 1.0 | 1.0 | 0.00 | 0.00 | 0.00 | 95 | 1015.6 |
| 20260507091744 | 44 | 184 | 2.0 | 2.0 | 0.00 | 0.00 | 0.00 | 96 | 1015.5 |
| 20260507091241 | 44 | 196 | 1.0 | 1.0 | 0.00 | 0.00 | 0.00 | 96 | 1015.3 |
| 20260507090736 | 44 | 199 | 1.0 | 1.0 | 0.00 | 0.00 | 0.00 | 96 | 1015.7 |
| 20260507090233 | 44 | 206 | 0.0 | 0.0 | 0.00 | 0.00 | 0.00 | 96 | 1015.7 |
| 20260507085730 | 45 | 202 | 1.0 | 1.0 | 0.00 | 0.00 | 0.00 | 96 | 1015.7 |
| 20260507085227 | 45 | 214 | 1.0 | 1.0 | 0.00 | 0.00 | 0.00 | 95 | 1015.6 |
| 20260507084724 | 45 | 223 | 0.0 | 0.0 | 0.00 | 0.00 | 0.00 | 95 | 1015.6 |
| 20260507084220 | 45 | 234 | 0.0 | 0.0 | 0.00 | 0.00 | 0.00 | 95 | 1015.5 |
| 20260507083718 | 45 | 234 | 0.0 | 0.0 | 0.00 | 0.00 | 0.00 | 95 | 1015.5 |
| 20260507083214 | 45 | 234 | 0.0 | 0.0 | 0.00 | 0.00 | 0.00 | 95 | 1015.6 |
| 20260507082710 | 45 | 234 | 0.0 | 0.0 | 0.00 | 0.00 | 0.00 | 95 | 1015.6 |
| 20260507082206 | 45 | 234 | 0.0 | 0.0 | 0.00 | 0.00 | 0.00 | 94 | 1015.5 |
| 20260507081703 | 45 | 234 | 0.0 | 0.0 | 0.00 | 0.00 | 0.00 | 94 | 1015.6 |
| 20260507081159 | 45 | 234 | 0.0 | 0.0 | 0.00 | 0.00 | 0.00 | 94 | 1015.4 |
| 20260507080656 | 46 | 234 | 0.0 | 0.0 | 0.00 | 0.00 | 0.00 | 94 | 1015.6 |
| 20260507080153 | 46 | 240 | 1.0 | 1.0 | 0.00 | 0.00 | 0.00 | 94 | 1015.5 |
| 20260507075648 | 46 | 218 | 0.0 | 0.0 | 0.00 | 0.00 | 0.00 | 94 | 1015.5 |
| 20260507075144 | 46 | 218 | 0.0 | 0.0 | 0.00 | 0.00 | 0.00 | 94 | 1015.7 |
| 20260507074641 | 46 | 218 | 0.0 | 0.0 | 0.00 | 0.00 | 0.00 | 94 | 1015.4 |
| 20260507074139 | 46 | 218 | 0.0 | 0.0 | 0.00 | 0.00 | 0.00 | 94 | 1015.5 |
| 20260507073636 | 46 | 218 | 0.0 | 0.0 | 0.00 | 0.00 | 0.00 | 93 | 1015.5 |
| 20260507073132 | 46 | 218 | 0.0 | 0.0 | 0.00 | 0.00 | 0.00 | 93 | 1015.5 |
| 20260507072630 | 47 | 218 | 0.0 | 0.0 | 0.00 | 0.00 | 0.00 | 93 | 1015.3 |
| 20260507072127 | 46 | 218 | 0.0 | 0.0 | 0.00 | 0.00 | 0.00 | 92 | 1015.4 |
| 20260507071624 | 46 | 218 | 0.0 | 0.0 | 0.00 | 0.00 | 0.00 | 92 | 1015.5 |
| 20260507071120 | 47 | 218 | 0.0 | 0.0 | 0.00 | 0.00 | 0.00 | 92 | 1015.4 |
| 20260507070617 | 47 | 218 | 0.0 | 0.0 | 0.00 | 0.00 | 0.00 | 91 | 1015.4 |
| 20260507070115 | 47 | 216 | 1.0 | 1.0 | 0.00 | 0.00 | 0.00 | 91 | 1015.4 |
| 20260507065611 | 47 | 246 | 1.0 | 2.0 | 0.00 | 0.00 | 0.00 | 90 | 1015.2 |
| 20260507065108 | 47 | 224 | 0.0 | 0.0 | 0.00 | 0.00 | 0.00 | 90 | 1015.3 |
| 20260507064606 | 47 | 221 | 0.0 | 0.0 | 0.00 | 0.00 | 0.00 | 90 | 1015.5 |
| 20260507064104 | 47 | 253 | 1.0 | 2.0 | 0.00 | 0.00 | 0.00 | 90 | 1015.6 |
| 20260507063601 | 47 | 210 | 1.0 | 2.0 | 0.00 | 0.00 | 0.00 | 91 | 1015.2 |
| 20260507063058 | 47 | 146 | 2.0 | 2.0 | 0.00 | 0.00 | 0.00 | 92 | 1015.3 |
| 20260507062555 | 47 | 224 | 0.0 | 0.0 | 0.00 | 0.00 | 0.00 | 92 | 1015.5 |
| 20260507062052 | 47 | 196 | 0.0 | 0.0 | 0.00 | 0.00 | 0.00 | 92 | 1015.5 |
| 20260507061550 | 47 | 165 | 2.0 | 2.0 | 0.00 | 0.00 | 0.00 | 93 | 1015.3 |
| 20260507061048 | 47 | 187 | 0.0 | 0.0 | 0.00 | 0.00 | 0.00 | 93 | 1015.4 |
| 20260507060546 | 47 | 166 | 1.0 | 1.0 | 0.00 | 0.00 | 0.00 | 94 | 1015.5 |
| 20260507060042 | 47 | 148 | 1.0 | 1.0 | 0.00 | 0.00 | 0.00 | 95 | 1015.2 |
| 20260507055537 | 47 | 224 | 0.0 | 1.0 | 0.00 | 0.00 | 0.00 | 95 | 1015.5 |
| 20260507055033 | 48 | 244 | 1.0 | 1.0 | 0.00 | 0.00 | 0.00 | 96 | 1015.5 |
| 20260507054529 | 48 | 239 | 0.0 | 0.0 | 0.00 | 0.00 | 0.00 | 96 | 1015.7 |
| 20260507054027 | 47 | 266 | 1.0 | 2.0 | 0.00 | 0.00 | 0.00 | 96 | 1015.7 |
| 20260507053525 | 48 | 274 | 2.0 | 2.0 | 0.00 | 0.00 | 0.00 | 96 | 1015.8 |
| 20260507053023 | 48 | 274 | 0.0 | 0.0 | 0.00 | 0.00 | 0.00 | 96 | 1015.9 |
| 20260507052520 | 48 | 266 | 1.0 | 2.0 | 0.00 | 0.00 | 0.00 | 97 | 1016.0 |
| 20260507052017 | 48 | 280 | 2.0 | 2.0 | 0.00 | 0.00 | 0.00 | 97 | 1016.0 |
| 20260507051515 | 48 | 33 | 4.0 | 5.0 | 0.00 | 0.00 | 0.00 | 97 | 1016.0 |
| 20260507051011 | 49 | 269 | 2.0 | 2.0 | 0.00 | 0.00 | 0.00 | 97 | 1016.3 |
| 20260507050508 | 49 | 17 | 5.0 | 6.0 | 0.00 | 0.00 | 0.00 | 97 | 1016.1 |
| 20260507050005 | 49 | 197 | 0.0 | 0.0 | 0.00 | 0.00 | 0.00 | 97 | 1016.1 |
| 20260507045501 | 49 | 197 | 0.0 | 0.0 | 0.00 | 0.00 | 0.00 | 97 | 1015.8 |
| 20260507044958 | 49 | 197 | 0.0 | 0.0 | 0.00 | 0.00 | 0.00 | 97 | 1015.9 |
| 20260507044455 | 49 | 197 | 0.0 | 0.0 | 0.00 | 0.00 | 0.00 | 96 | 1016.0 |
| 20260507043951 | 49 | 197 | 0.0 | 0.0 | 0.00 | 0.00 | 0.00 | 96 | 1015.9 |
| 20260507043447 | 49 | 197 | 0.0 | 0.0 | 0.00 | 0.00 | 0.00 | 96 | 1016.0 |
| 20260507042944 | 49 | 197 | 0.0 | 0.0 | 0.00 | 0.00 | 0.00 | 96 | 1015.8 |
| 20260507042441 | 49 | 197 | 0.0 | 0.0 | 0.00 | 0.00 | 0.00 | 96 | 1015.7 |
| 20260507041936 | 49 | 197 | 0.0 | 0.0 | 0.00 | 0.00 | 0.00 | 96 | 1015.9 |
| 20260507041433 | 49 | 197 | 0.0 | 0.0 | 0.00 | 0.00 | 0.00 | 96 | 1015.9 |
| 20260507040931 | 49 | 197 | 0.0 | 0.0 | 0.00 | 0.00 | 0.00 | 96 | 1015.8 |
| 20260507040426 | 49 | 197 | 0.0 | 0.0 | 0.00 | 0.00 | 0.00 | 96 | 1015.7 |
| 20260507035922 | 49 | 197 | 0.0 | 0.0 | 0.00 | 0.54 | 0.54 | 96 | 1015.7 |
| 20260507035419 | 48 | 197 | 0.0 | 0.0 | 0.00 | 0.54 | 0.54 | 97 | 1015.7 |
| 20260507034916 | 49 | 197 | 0.0 | 0.0 | 0.00 | 0.54 | 0.54 | 97 | 1015.5 |
| 20260507034413 | 49 | 197 | 0.0 | 0.0 | 0.00 | 0.54 | 0.54 | 97 | 1015.7 |
| 20260507033911 | 49 | 197 | 0.0 | 0.0 | 0.00 | 0.54 | 0.54 | 97 | 1016.0 |
| 20260507033409 | 49 | 197 | 0.0 | 0.0 | 0.00 | 0.54 | 0.54 | 97 | 1015.6 |
| 20260507032905 | 49 | 196 | 1.0 | 2.0 | 0.00 | 0.54 | 0.54 | 97 | 1015.8 |
| 20260507032402 | 49 | 197 | 1.0 | 1.0 | 0.00 | 0.54 | 0.54 | 97 | 1015.8 |
| 20260507031858 | 49 | 197 | 0.0 | 0.0 | 0.00 | 0.54 | 0.54 | 96 | 1016.1 |
| 20260507031355 | 49 | 197 | 0.0 | 0.0 | 0.00 | 0.54 | 0.54 | 96 | 1016.1 |
| 20260507030852 | 49 | 197 | 1.0 | 1.0 | 0.00 | 0.54 | 0.54 | 96 | 1016.3 |
| 20260507030349 | 49 | 197 | 1.0 | 1.0 | 0.00 | 0.54 | 0.54 | 96 | 1016.1 |
| 20260507025846 | 49 | 197 | 0.0 | 0.0 | 0.00 | 0.54 | 0.54 | 96 | 1015.9 |
| 20260507025343 | 49 | 197 | 0.0 | 1.0 | 0.00 | 0.54 | 0.54 | 96 | 1015.7 |
| 20260507024841 | 49 | 197 | 1.0 | 1.0 | 0.00 | 0.54 | 0.54 | 95 | 1015.7 |
| 20260507024338 | 49 | 197 | 1.0 | 1.0 | 0.00 | 0.54 | 0.54 | 95 | 1015.8 |
| 20260507023834 | 50 | 197 | 0.0 | 1.0 | 0.00 | 0.54 | 0.54 | 95 | 1016.0 |
| 20260507023331 | 50 | 197 | 1.0 | 1.0 | 0.00 | 0.54 | 0.54 | 94 | 1015.5 |
| 20260507022828 | 50 | 197 | 1.0 | 1.0 | 0.00 | 0.54 | 0.54 | 93 | 1015.5 |
| 20260507022324 | 49 | 197 | 1.0 | 1.0 | 0.00 | 0.54 | 0.54 | 93 | 1015.8 |
| 20260507021820 | 50 | 197 | 1.0 | 1.0 | 0.00 | 0.54 | 0.54 | 93 | 1015.6 |
| 20260507021316 | 49 | 197 | 1.0 | 1.0 | 0.00 | 0.54 | 0.54 | 92 | 1015.6 |
| 20260507020814 | 49 | 197 | 1.0 | 1.0 | 0.00 | 0.54 | 0.54 | 92 | 1015.5 |
| 20260507020310 | 49 | 197 | 2.0 | 2.0 | 0.00 | 0.54 | 0.54 | 93 | 1015.2 |
| 20260507015808 | 49 | 197 | 1.0 | 1.0 | 0.00 | 0.54 | 0.54 | 93 | 1015.4 |
| 20260507015306 | 49 | 197 | 1.0 | 1.0 | 0.00 | 0.54 | 0.54 | 93 | 1015.6 |
| 20260507014802 | 49 | 197 | 0.0 | 0.0 | 0.00 | 0.54 | 0.54 | 94 | 1015.3 |
| 20260507014258 | 49 | 197 | 0.0 | 1.0 | 0.00 | 0.54 | 0.54 | 94 | 1015.3 |
| 20260507013755 | 50 | 197 | 2.0 | 2.0 | 0.00 | 0.54 | 0.54 | 94 | 1015.3 |
| 20260507013252 | 50 | 197 | 1.0 | 1.0 | 0.00 | 0.54 | 0.54 | 94 | 1015.2 |
| 20260507012749 | 50 | 197 | 0.0 | 0.0 | 0.00 | 0.54 | 0.54 | 93 | 1015.4 |
| 20260507012245 | 50 | 197 | 1.0 | 1.0 | 0.00 | 0.54 | 0.54 | 93 | 1015.3 |
| 20260507011743 | 50 | 197 | 0.0 | 0.0 | 0.00 | 0.54 | 0.54 | 93 | 1015.5 |
| 20260507011239 | 50 | 197 | 0.0 | 1.0 | 0.00 | 0.54 | 0.54 | 93 | 1015.0 |
| 20260507010738 | 50 | 197 | 0.0 | 0.0 | 0.00 | 0.54 | 0.54 | 93 | 1015.1 |
| 20260507010235 | 49 | 197 | 1.0 | 2.0 | 0.00 | 0.54 | 0.54 | 93 | 1014.8 |
| 20260507005733 | 49 | 197 | 1.0 | 2.0 | 0.00 | 0.54 | 0.54 | 93 | 1014.8 |
| 20260507005229 | 49 | 187 | 1.0 | 2.0 | 0.00 | 0.54 | 0.54 | 94 | 1014.7 |
| 20260507004725 | 49 | 196 | 1.0 | 2.0 | 0.00 | 0.54 | 0.54 | 94 | 1014.8 |
| 20260507004223 | 49 | 188 | 2.0 | 2.0 | 0.00 | 0.54 | 0.54 | 94 | 1014.7 |
| 20260507003719 | 49 | 197 | 1.0 | 2.0 | 0.00 | 0.54 | 0.54 | 94 | 1015.1 |
| 20260507003214 | 50 | 185 | 1.0 | 1.0 | 0.00 | 0.54 | 0.54 | 95 | 1015.1 |
| 20260507002711 | 49 | 196 | 1.0 | 2.0 | 0.00 | 0.54 | 0.54 | 95 | 1015.1 |
| 20260507002207 | 49 | 197 | 0.0 | 1.0 | 0.00 | 0.54 | 0.54 | 96 | 1014.8 |
| 20260507001704 | 50 | 175 | 2.0 | 2.0 | 0.00 | 0.54 | 0.54 | 96 | 1015.0 |
| 20260507001201 | 50 | 197 | 1.0 | 1.0 | 0.00 | 0.54 | 0.54 | 96 | 1014.9 |
| 20260507000657 | 50 | 175 | 2.0 | 2.0 | 0.00 | 0.54 | 0.54 | 96 | 1014.9 |
| 20260507000153 | 50 | 197 | 1.0 | 1.0 | 0.00 | 0.54 | 0.54 | 96 | 1015.2 |
| 20260506235650 | 50 | 197 | 1.0 | 1.0 | 0.00 | 0.54 | 0.54 | 96 | 1015.6 |
| 20260506235145 | 50 | 197 | 1.0 | 1.0 | 0.00 | 0.54 | 0.54 | 97 | 1015.4 |
| 20260506234643 | 50 | 189 | 1.0 | 2.0 | 0.00 | 0.54 | 0.54 | 97 | 1015.1 |
| 20260506234140 | 50 | 214 | 1.0 | 1.0 | 0.00 | 0.54 | 0.54 | 97 | 1015.2 |
| 20260506233637 | 50 | 245 | 1.0 | 1.0 | 0.00 | 0.54 | 0.54 | 97 | 1015.0 |
| 20260506233134 | 50 | 245 | 1.0 | 1.0 | 0.00 | 0.54 | 0.54 | 97 | 1015.3 |
| 20260506232630 | 50 | 240 | 0.0 | 0.0 | 0.00 | 0.54 | 0.54 | 97 | 1015.0 |
| 20260506232125 | 50 | 240 | 0.0 | 0.0 | 0.00 | 0.54 | 0.54 | 97 | 1015.2 |
| 20260506231623 | 50 | 237 | 0.0 | 1.0 | 0.00 | 0.54 | 0.54 | 97 | 1015.0 |
| 20260506231121 | 51 | 258 | 2.0 | 2.0 | 0.00 | 0.54 | 0.54 | 97 | 1014.8 |
| 20260506230618 | 51 | 259 | 3.0 | 3.0 | 0.00 | 0.54 | 0.54 | 97 | 1014.9 |
| 20260506230115 | 51 | 237 | 1.0 | 1.0 | 0.00 | 0.54 | 0.54 | 98 | 1015.3 |
| 20260506225611 | 51 | 234 | 1.0 | 1.0 | 0.00 | 0.54 | 0.54 | 98 | 1014.9 |
| 20260506225108 | 51 | 234 | 1.0 | 1.0 | 0.00 | 0.54 | 0.54 | 98 | 1014.8 |
| 20260506224605 | 51 | 230 | 0.0 | 0.0 | 0.00 | 0.54 | 0.54 | 98 | 1014.8 |
| 20260506224101 | 51 | 230 | 0.0 | 0.0 | 0.00 | 0.54 | 0.54 | 98 | 1014.8 |
| 20260506223557 | 51 | 230 | 0.0 | 0.0 | 0.00 | 0.54 | 0.54 | 98 | 1014.3 |
| 20260506223053 | 51 | 231 | 1.0 | 2.0 | 0.00 | 0.54 | 0.54 | 98 | 1014.6 |
| 20260506222550 | 51 | 230 | 1.0 | 1.0 | 0.00 | 0.54 | 0.54 | 98 | 1014.4 |
| 20260506222047 | 51 | 227 | 1.0 | 1.0 | 0.00 | 0.54 | 0.54 | 98 | 1014.6 |
| 20260506221545 | 51 | 226 | 0.0 | 0.0 | 0.00 | 0.54 | 0.54 | 98 | 1014.4 |
| 20260506221042 | 50 | 230 | 1.0 | 1.0 | 0.00 | 0.54 | 0.54 | 98 | 1014.5 |